Location: Unspecified
(0.0000°N, 0.0000°E)
Time: 13:36:38
(UTC+00:00)

USA 238 - Visible Passes

Search period start: 23 May 2019 00:00
Search period end: 02 June 2019 00:00
Orbit: 1043 x 1170 km, 63.4° (Epoch: 27 April)

Date Brightness Start Highest point End Pass type
(mag) Time Alt. Az. Time Alt. Az. Time Alt. Az.
23 May 4.8 03:41:46 26° SSE 03:44:36 37° ESE 03:50:41 10° NE visible
23 May 4.9 05:30:18 10° WSW 05:35:14 22° WNW 05:40:11 10° NNW visible
24 May 5.6 02:59:18 19° ESE 02:59:52 19° ESE 03:04:24 10° ENE visible
24 May 4.1 04:46:49 23° WSW 04:50:30 42° WNW 04:56:46 10° N visible
25 May 3.5 04:04:18 56° SW 04:05:49 80° WNW 04:12:32 10° NNE visible
26 May 4.2 03:21:42 53° E 03:21:42 53° E 03:27:40 10° NE visible
26 May 5.3 05:09:11 11° W 05:11:49 14° WNW 05:15:08 10° NW visible
27 May 5.6 02:39:03 22° ENE 02:39:03 22° ENE 02:42:03 10° NE visible
27 May 4.5 04:26:31 28° WNW 04:27:04 28° WNW 04:32:40 10° N visible
28 May 4.1 03:43:47 46° NNW 03:43:47 46° NNW 03:48:53 10° N visible
29 May 5.0 03:00:59 33° NNE 03:00:59 33° NNE 03:04:24 10° NNE visible
30 May 6.0 02:18:07 15° NE 02:18:07 15° NE 02:19:15 10° NE visible
30 May 5.3 04:05:35 17° NW 04:05:35 17° NW 04:08:09 10° NNW visible
31 May 5.3 03:22:38 21° NNW 03:22:38 21° NNW 03:24:59 10° N visible
01 Jun 5.8 02:39:38 16° NNE 02:39:38 16° NNE 02:40:53 10° NNE visible
